CZ-6A DEB

Satellite information

Favourite Embed

Satellite Type and Status

DEBRISIN ORBIT

Key statistics

Satellite CZ-6A DEB at a glance.

Uptime

969

Days in orbit

Revolutions

≈ 14.8

Per day

Orbit

SSO

Sun Synchronous Orbit

Inclination

98.7

Latest

Satellite identification and parameters

Extended collection of information and parameters for CZ-6A DEB.

Object identification

Identified? True

Debris? True

Object name: CZ-6A DEB

International designator: 2022-151NQ

Object number (NORAD): 54614

Object ID (CCSDS): 54614

Country: PEOPLES REPUBLIC OF CHINA (PRC)

Current information (Y/N): Y

RCS size: SMALL

Orbital parameters

Period: 97.551 minutes

Inclination: 98.6621 deg

SMA: 7019.64 km

Apoapsis: 688.477 km

Periapsis: 594.533 km

RAAN: 240.4729 deg

Eccentricy: 0.0066915

Argument of periapsis: 249.9328 deg

Mean anomaly: 109.4669 deg

Mean motion: 14.76150105 rev/day

Mean motion (dot): 0.00013598 rev/day2

B* drag term: 0.0019028 1/REarth

Two-line elements (TLE)

Creation date: July 6, 2025, 6:05 p.m.

Reference frame: TEME

Reference center: EARTH

Epoch: July 6, 2025, 2:25 p.m. UTC

TLE line 0: 0 CZ-6A DEB

TLE line 1: 1 54614U 22151NQ 25187.60096314 .00013598 00000-0 19028-2 0 9991

TLE line 2: 2 54614 98.6621 240.4729 0066915 249.9328 109.4669 14.76150105 68375

Live tracking on map

Real-time ground track for satellite CZ-6A DEB.

In-orbit conjunctions

A list of the most updated potential collisions computed for object CZ-6A DEB.

Target Orbit TCA Probability of collision Miss distance Type
COSMOS 2251 DEB LEO 2025-05-24 05:43:22 0.0001524055 130.0 (m) DEBRIS
PSLV R/B SSO 2024-07-30 02:27:39 0.0006129085 222.0 (m) ROCKET BODY
IRIDIUM 33 DEB LEO 2024-06-09 17:23:08 0.0001908505 369.0 (m) DEBRIS

Associated space launch

Chinese satellite reported for atmospheric/ocean/environmental/spatial parameter research purposes, details TBD.

CZ-6A DEB was lifted into orbit during the mission ‘Long March 6A | Yunhai 3’, on board a Long March 6A space rocket.

The launch took place on Nov. 11, 2022, 10:52 p.m. from Launch Complex 9A.

For more information about the launch, click the button.

Launch to space Long March 6A | Yunhai 3
Long March 6A | Yunhai 3

Agency: N/A

Status: Launch Successful

Launch date: Nov. 11, 2022, 10:52 p.m. UTC

Rocket: Long March 6A

Launch pad: Launch Complex 9A

Location: Taiyuan Satellite Launch Center, People's Republic of China

...

Latest news about this satellite

There are no fresh news available about this satellite. Check back as we update our databases every day.


Newsletter sign-up

Weekly statistics, charts and insights to help you stay on top of the space industry.